Cape Girardeau, MO

7:11 PM CST on November 22, 2019 (GMT -0600)
Cape Girardeau Regional

Weather History for KCGI - October, 2019

Change the Weather History Date:

Wednesday, October 23, 2019

  Actual Average Record
Temperature  
Mean Temperature 54 °F 56 °F  
Max Temperature 69 °F 68 °F 84 °F (1963)
Min Temperature 38 °F 43 °F 23 °F (1981)
Degree Days  
Heating Degree Days 11 10  
Month to date heating degree days 149 167  
Since 1 July heating degree days 149 216  
Cooling Degree Days 0 0  
Month to date cooling degree days 51 29  
Year to date cooling degree days 1775 1451  
Growing Degree Days 3 (Base 50)    
Moisture  
Dew Point 40 °F    
Average Humidity 65    
Maximum Humidity 92    
Minimum Humidity 37    
Precipitation  
Precipitation 0.00 in 0.13 in 1.65 in (2007)
Month to date precipitation 3.11 2.77  
Year to date precipitation 50.78 37.10  
Sea Level Pressure  
Sea Level Pressure 30.09 in    
Wind  
Wind Speed 9 mph (South)    
Max Wind Speed 23 mph    
Max Gust Speed 33 mph    
Visibility 10 miles    
Events      
T = Trace of Precipitation, MM = Missing Value Source: NWS Daily Summary

Daily Weather History Graph

Daily Weather History Graph

Search for Another Location

Airport or City:

Astronomy

Oct. 23, 2019 Rise Set
Actual Time 7:13 AM CDT 6:11 PM CDT
Civil Twilight 6:47 AM CDT 6:37 PM CDT
Nautical Twilight 6:16 AM CDT 7:08 PM CDT
Astronomical Twilight 5:46 AM CDT 7:38 PM CDT
Moon 1:41 AM CDT 3:52 PM CDT
Length of Visible Light 11h 50m
Length of Day
10h 57m
Waning Crescent, 26% of the Moon is Illuminated
Oct 23
Waning Crescent
Oct 27
New
Nov 4
First Quarter
Nov 12
Full
Nov 19
Last Quarter

Hourly Weather History & Observations

Time (CDT) Temp. Windchill Dew Point Humidity Pressure Visibility Wind Dir Wind Speed Gust Speed Precip Events Conditions
12:53 AM 43.0 °F - 37.9 °F 82% 30.06 in 10.0 mi Calm Calm - N/A   Clear
1:53 AM 42.1 °F - 37.9 °F 85% 30.07 in 10.0 mi Calm Calm - N/A   Clear
2:53 AM 39.9 °F 36.7 °F 37.0 °F 89% 30.06 in 10.0 mi SE 4.6 mph - N/A   Clear
3:53 AM 41.0 °F - 37.0 °F 86% 30.06 in 10.0 mi Calm Calm - N/A   Clear
4:53 AM 37.9 °F 35.5 °F 36.0 °F 93% 30.09 in 10.0 mi SW 3.5 mph - N/A   Clear
5:53 AM 39.0 °F 35.7 °F 36.0 °F 89% 30.10 in 10.0 mi ESE 4.6 mph - N/A   Clear
6:53 AM 39.9 °F 36.7 °F 36.0 °F 86% 30.10 in 10.0 mi East 4.6 mph - N/A   Clear
7:53 AM 41.0 °F - 37.0 °F 86% 30.12 in 10.0 mi Calm Calm - N/A   Clear
8:53 AM 48.0 °F - 41.0 °F 77% 30.15 in 10.0 mi Calm Calm - N/A   Clear
9:53 AM 57.0 °F - 41.0 °F 55% 30.14 in 10.0 mi SSW 10.4 mph - N/A   Clear
10:53 AM 60.1 °F - 39.9 °F 47% 30.14 in 10.0 mi SSW 12.7 mph 20.7 mph N/A   Clear
12:53 PM 66.0 °F - 42.1 °F 42% 30.10 in 10.0 mi SW 18.4 mph 26.5 mph N/A   Clear
1:53 PM 68.0 °F - 42.1 °F 39% 30.07 in 10.0 mi South 18.4 mph 27.6 mph N/A   Clear
2:53 PM 68.0 °F - 42.1 °F 39% 30.05 in 10.0 mi SSW 17.3 mph 29.9 mph N/A   Clear
3:53 PM 69.1 °F - 42.1 °F 38% 30.05 in 10.0 mi SSW 18.4 mph 27.6 mph N/A   Clear
4:53 PM 66.9 °F - 43.0 °F 42% 30.05 in 10.0 mi South 13.8 mph 25.3 mph N/A   Clear
5:53 PM 64.9 °F - 43.0 °F 45% 30.06 in 10.0 mi South 12.7 mph - N/A   Clear
6:53 PM 62.1 °F - 43.0 °F 50% 30.07 in 10.0 mi South 12.7 mph - N/A   Clear
7:53 PM 60.1 °F - 41.0 °F 49% 30.08 in 10.0 mi South 9.2 mph - N/A   Clear
9:53 PM 55.9 °F - 42.1 °F 60% 30.12 in 10.0 mi South 8.1 mph - N/A   Clear
10:53 PM 52.0 °F - 42.1 °F 69% 30.14 in 10.0 mi Calm Calm - N/A   Partly Cloudy
11:53 PM 54.0 °F - 43.0 °F 66% 30.14 in 10.0 mi SSW 4.6 mph - N/A   Partly Cloudy